Observations for Trim Patrick St
| Time | AQI | Temp °C | Hum % | Pres Pa | CO μg/m³ | H₂S μg/m³ | NO μg/m³ | NO₂ μg/m³ | O₃ μg/m³ | SO₂ μg/m³ | PM1 μg/m³ | PM2.5 μg/m³ | PM10 μg/m³ |
|---|---|---|---|---|---|---|---|---|---|---|---|---|---|
| Sunday 9 August 2026 | |||||||||||||
| 05:33 | 2 | 18.4 | 69 | 84,562 | 0.06 | 2.28 | 1.95 | 12.56 | 44.03 | 0.9 | 4.57 | 9.53 | 10.48 |
| 05:32 | 2 | 18.5 | 69 | 84,423 | 0.05 | 3.25 | 1.74 | 15.4 | 36.65 | 0.85 | 6.29 | 11.72 | 12.9 |
| 05:31 | 2 | 18.5 | 69 | 84,216 | 0.06 | 3.41 | 1.96 | 22.29 | 48.28 | 0.47 | 6.29 | 9.53 | 10.48 |
| 05:30 | 2 | 18.4 | 69 | 84,073 | 0.06 | 2.75 | 1.99 | 13.97 | 40.4 | 0.84 | 5.43 | 10.98 | 12.08 |
| 05:29 | 2 | 18.5 | 69 | 83,918 | 0.05 | 2.54 | 2 | 14.04 | 44.53 | 0.77 | 5.43 | 9.54 | 10.49 |
| 05:27 | 2 | 18.5 | 69 | 83,607 | 0.04 | 2.51 | 2.1 | 18.58 | 47 | 0.88 | 6.29 | 10.29 | 11.31 |
| 05:26 | 2 | 18.5 | 69 | 83,390 | 0.04 | 2.07 | 2.09 | 14.68 | 37.75 | 0.44 | 5.43 | 9.58 | 10.53 |
| 05:25 | 2 | 18.5 | 69 | 83,099 | 0.03 | 2.46 | 2.13 | 14.66 | 47.04 | 0.11 | 5.43 | 9.56 | 10.52 |
| 05:24 | 2 | 18.5 | 69 | 82,876 | 0.05 | 2.28 | 2.16 | 17.81 | 39.66 | 0.53 | 6.29 | 10.29 | 11.31 |
| 05:23 | 2 | 18.5 | 69 | 82,699 | 0.04 | 1.62 | 2.13 | 11.67 | 39.59 | 0.63 | 4.57 | 7.39 | 8.13 |
| 05:22 | 2 | 18.5 | 69 | 82,547 | 0.03 | 3.25 | 2.01 | 20.17 | 48.62 | 0.86 | 4.57 | 9.55 | 10.51 |
| 05:21 | 2 | 18.5 | 69 | 82,256 | 0.04 | 1.28 | 1.89 | 12.38 | 36.03 | 0.58 | 5.43 | 10.29 | 11.31 |
| 05:20 | 2 | 18.5 | 69 | 82,020 | 0.03 | 2.28 | 1.68 | 14.69 | 41.11 | 0.11 | 4.57 | 10.3 | 11.33 |
| 05:19 | 2 | 18.5 | 69 | 81,809 | 0.03 | 2.86 | 1.7 | 16.64 | 49.74 | 0.28 | 4.57 | 8.85 | 9.74 |
| 05:18 | 2 | 18.5 | 69 | 81,587 | 0.03 | 2.04 | 1.98 | 14.89 | 40.88 | 0.25 | 5.43 | 9.56 | 10.52 |
| 05:17 | 2 | 18.6 | 69 | 81,352 | 0.03 | 3.04 | 2.02 | 16.94 | 44.69 | 0.37 | 4.57 | 8.85 | 9.74 |
| 05:16 | 2 | 18.5 | 68 | 81,095 | 0.04 | 3.62 | 2.09 | 24.41 | 47.52 | 0.42 | 5.43 | 9.59 | 10.55 |
| 05:14 | 2 | 18.5 | 68 | 80,728 | 0.04 | 1.05 | 2.1 | 13.01 | 39.99 | 0.44 | 2.86 | 7.42 | 8.16 |
| 05:09 | 2 | 18.5 | 68 | 80,081 | 0.03 | 2.51 | 2.17 | 14.77 | 39.6 | 0.28 | 4.57 | 9.61 | 10.58 |
| 05:08 | 2 | 18.5 | 68 | 79,933 | 0.05 | 2.99 | 2.11 | 23.21 | 47.27 | 0.17 | 3.71 | 8.15 | 8.97 |